Tucson Davis Monthan, AZ

3:53 PM MST on April 30, 2017 (GMT -0700)
Davis-Monthan Air Force Base

Weather History for KDMA - October, 2013

Change the Weather History Date:

Thursday, October 3, 2013

  Actual Average Record
Temperature  
Mean Temperature 76 °F -  
Max Temperature 90 °F 87 °F 102 °F (1993)
Min Temperature 63 °F 63 °F 46 °F (1959)
Cooling Degree Days 12    
Growing Degree Days 26 (Base 50)    
Moisture  
Dew Point 40 °F    
Average Humidity 30    
Maximum Humidity 52    
Minimum Humidity 10    
Precipitation  
Precipitation 0.00 in - - ()
Sea Level Pressure  
Sea Level Pressure 29.76 in    
Wind  
Wind Speed 8 mph (South)    
Max Wind Speed 17 mph    
Max Gust Speed 22 mph    
Visibility 10 miles    
Events      
Averages and records for this station are not official NWS values.
T = Trace of Precipitation, MM = Missing Value Source: NWS Daily Summary

Daily Weather History Graph

Daily Weather History Graph

Search for Another Location

Airport or City:

Trip Planner

Search our weather history database for the weather conditions in past years. The results will help you decide how hot, cold, wet, or windy it might be!

Date:

Astronomy

Oct. 03, 2013 Rise Set
Actual Time 6:19 AM MST 6:05 PM MST
Civil Twilight 5:54 AM MST 6:29 PM MST
Nautical Twilight 5:26 AM MST 6:58 PM MST
Astronomical Twilight 4:57 AM MST 7:26 PM MST
Moon 4:58 AM MST (10/3) 5:14 PM MST (10/3)
Length of Visible Light 12h 35m
Length of Day
11h 46m
Waning Crescent, 2% of the Moon is Illuminated
Oct 3
Waning Crescent
Oct 4
New
Oct 11
First Quarter
Oct 18
Full
Oct 26
Last Quarter

Hourly Weather History & Observations

Time (MST) Temp. Dew Point Humidity Pressure Visibility Wind Dir Wind Speed Gust Speed Precip Events Conditions
12:58 AM 67.3 °F 37.8 °F 34% 29.81 in 10.0 mi SE 8.1 mph - N/A   Clear
1:58 AM 67.3 °F 42.4 °F 40% 29.81 in 10.0 mi South 6.9 mph - N/A   Clear
2:58 AM 66.6 °F 44.8 °F 45% 29.79 in 10.0 mi SSE 6.9 mph - N/A   Clear
3:58 AM 64.4 °F 45.1 °F 50% 29.81 in 10.0 mi ESE 8.1 mph - N/A   Clear
4:58 AM 64.8 °F 46.9 °F 52% 29.81 in 10.0 mi ESE 5.8 mph - N/A   Clear
5:58 AM 64.0 °F 45.0 °F 50% 29.82 in 10.0 mi East 6.9 mph - N/A   Clear
6:58 AM 63.9 °F 43.7 °F 48% 29.82 in 10.0 mi SE 6.9 mph - N/A   Clear
7:58 AM 70.5 °F 47.3 °F 44% 29.83 in 10.0 mi SE 8.1 mph - N/A   Clear
8:58 AM 74.8 °F 48.0 °F 39% 29.83 in 10.0 mi SSE 5.8 mph - N/A   Clear
9:58 AM 79.7 °F 49.3 °F 34% 29.81 in 10.0 mi SSE 6.9 mph - N/A   Clear
10:58 AM 81.9 °F 47.8 °F 30% 29.79 in 10.0 mi Variable 6.9 mph - N/A   Clear
11:58 AM 84.4 °F 47.5 °F 28% 29.76 in 10.0 mi SSE 5.8 mph - N/A   Clear
12:58 PM 86.4 °F 47.1 °F 26% 29.72 in 10.0 mi ESE 5.8 mph - N/A   Clear
1:58 PM 88.9 °F 38.8 °F 17% 29.69 in 10.0 mi South 11.5 mph - N/A   Clear
2:58 PM 89.4 °F 38.3 °F 17% 29.67 in 10.0 mi West 15.0 mph 18.4 mph N/A   Clear
3:18 PM 89.6 °F 33.8 °F 14% 29.78 in 10.0 mi West 17.3 mph - N/A   Clear
3:58 PM 90.5 °F 34.0 °F 13% 29.66 in 10.0 mi West 11.5 mph 21.9 mph N/A   Clear
4:58 PM 88.7 °F 26.1 °F 10% 29.66 in 10.0 mi West 16.1 mph 20.7 mph N/A   Clear
5:58 PM 85.6 °F 24.4 °F 11% 29.68 in 10.0 mi West 11.5 mph 19.6 mph N/A   Clear
6:58 PM 82.4 °F 35.2 °F 18% 29.70 in 10.0 mi West 9.2 mph - N/A   Clear
7:58 PM 80.4 °F 35.2 °F 20% 29.72 in 10.0 mi WSW 9.2 mph - N/A   Clear
9:58 PM 72.1 °F 34.9 °F 26% 29.74 in 10.0 mi SSE 5.8 mph - N/A   Clear
10:58 PM 69.4 °F 35.2 °F 28% 29.75 in 10.0 mi South 5.8 mph - N/A   Clear
11:58 PM 69.4 °F 42.8 °F 38% 29.76 in 10.0 mi SSW 6.9 mph - N/A   Clear